Location: ????????
(55.7667°N, 37.4833°E)
Time: 13:53:43
(UTC+00:00)

Cosmos 1515 Rocket - Pass Details

Date: 19 May 2025
Orbit: 601 x 623 km, 82.5° (Epoch: 19 June)

Event Time Altitude Azimuth Distance (km) Brightness Sun altitude
Exits shadow 23:14:58 15° 217° (SW) 1,663 5.1 -10.8°
Maximum altitude 23:18:23 48° 288° (WNW) 810 4.1 -10.6°
Drops below altitude 10° 23:22:40 10° 4° (N) 1,992 7.3 -10.4°
Sets 23:24:59 0° 10° (N) 2,905 8.6 -10.2°
